[[{"header":{"parameterUnit":"m.s-1","parameterCategory":1,"la1":30.2991,"la2":30.254,"lo1":-89.0895,"lo2":-89.0444,"dy":0.0017,"dx":0.0017,"nx":28,"ny":28,"refTime":"2024-08-06T21:00:00:Z","depth":0,"parameterNumber":2,"parameterNumberName":"U-component_of_WINDS"},"data":[0,0,0,0,0,0,0,0,0,0,0,0,0,0,0,0,0,0,0,0,0,0,0,0,0,0,0,0,0,0,0,0,0,0,0,0,0,0,0,0,0,0,0,0,0,0,0,0,0,0,0,0,0,0,0,0,0,0,3.8056,3.8057,0,3.8157,3.8158,3.8159,3.8085,3.8081,3.8078,3.8075,3.8184,3.819,3.8196,0,0,0,0,0,0,0,0,0,0,0,0,0,3.7806,3.7811,3.8056,3.8057,3.8058,3.8156,3.8158,3.8159,3.8085,3.8081,3.8077,3.8074,3.8182,3.8189,3.8197,0,0,0,0,0,0,0,0,0,0,0,0,0,3.7911,3.7812,3.8056,3.8033,3.8032,3.8156,3.8158,3.816,3.8086,3.8081,3.8076,3.8072,3.818,3.8189,3.8198,3.8351,0,0,3.8225,3.8229,0,0,0,0,0,0,0,0,3.7905,3.7921,3.8035,3.8035,3.8034,3.8103,3.811,3.8224,3.8087,3.8066,3.8075,3.8069,3.8162,3.8172,3.8202,3.8356,3.8361,3.8226,3.8231,3.8235,3.8238,0,0,0,0,0,0,0,3.7898,3.7916,3.8096,3.8037,3.8036,3.802,3.803,3.8131,3.814,3.8067,3.8062,3.8075,3.816,3.8193,3.8204,3.8363,3.8225,3.8233,3.8239,3.8242,3.8651,3.8656,0,0,0,0,0,0,3.7892,3.791,3.8093,3.8099,3.7956,3.8029,3.8039,3.8086,3.8139,3.8142,3.8079,3.8071,3.818,3.8193,3.8207,3.8392,3.8235,3.8243,3.8248,3.8645,3.8652,3.8658,0,0,0,0,0,0,3.7887,3.7909,3.8089,3.8003,3.8025,3.8038,3.8091,3.809,3.8123,3.8148,3.8149,3.811,3.8177,3.8195,3.8316,3.8395,3.8247,3.8255,3.8639,3.8647,3.8655,3.8763,0,0,0,0,0,0,3.788,3.7908,3.7965,3.8005,3.803,3.8194,3.8096,3.8096,3.8138,3.8129,3.8178,3.8181,3.8175,3.8303,3.8325,3.8405,3.8262,3.8632,3.8642,3.8652,3.8752,3.8774,3.8792,0,0,0,0,0,3.7872,3.7992,3.7968,3.799,3.8101,3.8199,3.8213,3.8201,3.8145,3.8203,3.8219,3.818,3.8382,3.8316,3.834,3.8424,3.8627,3.8639,3.8651,3.8743,3.8769,3.8791,0,0,0,0,0,0,3.7963,3.7997,3.7971,3.8107,3.815,3.8186,3.8259,3.8229,3.8291,3.828,3.8264,3.8276,3.8404,3.8425,3.8351,3.8576,3.8496,3.8514,3.8558,3.8583,3.8602,3.8595,3.827,0,0,0,0,0,3.7998,3.8073,3.8099,3.8217,3.824,3.8246,3.8288,3.8276,3.8321,3.8339,3.8364,3.8411,3.8485,3.8535,3.8604,3.8754,3.8765,3.8824,3.8844,3.886,3.8876,3.8959,3.8986,3.8698,3.8698,3.8698,0,0,3.8073,3.8101,3.815,3.8236,3.8268,3.8348,3.8262,3.835,3.841,3.8353,3.8469,3.8489,3.8541,3.8677,3.8739,3.87,3.8958,3.8875,3.8888,3.8896,3.8975,3.9002,3.9027,3.8706,3.8705,3.8704,0,0,3.8251,3.8279,3.8381,3.8415,3.8463,3.8467,3.8491,3.8532,3.8542,3.8658,3.8617,3.8689,3.8817,3.8856,3.8893,3.9086,3.9053,3.9109,3.9214,3.9296,3.9318,3.9339,3.941,3.9436,3.9125,3.9125,3.9126,0,3.8339,3.8456,3.8438,3.8529,3.857,3.852,3.8625,3.8659,3.8729,3.8759,3.8713,3.8874,3.8905,3.9051,3.9098,3.9129,3.9159,3.9105,3.9316,3.9336,3.9355,3.9423,3.945,3.9132,3.9131,3.9131,3.913,0,3.8563,3.8645,3.8722,3.8789,3.8838,3.8936,3.8935,3.8987,3.897,3.8979,3.9099,3.9134,3.9211,3.9244,3.9229,3.939,3.9364,3.9317,3.9237,3.9389,3.9453,3.9479,3.9142,3.9139,3.9137,3.9136,0,0,3.8802,3.8858,3.8887,3.8918,3.8968,3.9032,3.9129,3.9202,3.9248,3.9298,3.9381,3.949,3.9448,3.9489,3.9478,3.9549,3.9703,3.9494,3.9495,3.9534,3.9885,3.9922,3.9952,3.968,3.9685,3.9689,3.9882,0,3.8985,3.9151,3.9138,3.9295,3.9372,3.9326,3.941,3.9452,3.9463,3.9531,3.9544,3.9623,3.9559,3.9584,3.9653,3.967,3.9774,3.9656,3.976,3.9764,3.9751,3.9985,4.0023,4.0203,3.9906,3.9911,3.9914,0,3.922,3.9277,3.9442,3.9482,3.9514,3.959,3.9657,3.9721,3.9768,3.9772,3.9818,3.9795,3.9895,3.981,3.9949,3.9869,3.9911,3.9926,3.9933,3.9944,3.985,4.0005,4.026,4.0288,3.9952,3.9949,3.9946,0,3.9381,3.9499,3.9614,3.9641,3.969,3.9745,3.9768,3.9809,3.9855,3.9914,3.9944,4.0014,4.0054,4.011,4.0108,4.0046,4.025,4.0164,4.0258,4.0259,4.0305,4.0303,4.0573,4.0328,4.0328,4.0327,4.0327,0,3.9588,3.9692,3.9687,3.9758,3.9873,3.9858,3.9973,3.9991,4.0028,4.0103,4.0067,4.0139,4.013,4.0204,4.0202,4.0319,4.0337,4.0344,4.0343,4.0349,4.0349,4.0378,4.0367,4.0334,4.0333,4.0331,4.033,0,3.9789,3.9789,3.9911,3.9947,3.9959,4.0043,4.0074,4.0143,4.015,4.0246,4.0267,4.028,4.0364,4.0367,4.0464,4.0463,4.0606,4.059,4.059,4.0588,4.0683,4.0675,4.0984,4.1025,4.075,4.0753,4.0755,0,3.9922,4.0,4.0044,4.0091,4.0117,4.0193,4.0239,4.0227,4.0277,4.0336,4.0398,4.0478,4.0542,4.0679,4.0699,4.0773,4.076,4.0863,4.0772,4.0775,4.0765,4.0762,4.0771,4.0882,4.0885,4.0888,4.089,0,4.0159,4.0155,4.0221,4.0289,4.0344,4.0397,4.0446,4.0487,4.0481,4.0539,4.0623,4.0673,4.0771,4.0853,4.0925,4.0951,4.0922,4.0918,4.0944,4.0952,4.095,4.0955,4.0642,4.0912,4.091,4.0908,4.0907,4.0906,4.0332,4.04,4.0442,4.0517,4.0552,4.0599,4.0665,4.068,4.075,4.0828,4.0817,4.0912,4.0959,4.1052,4.1085,4.1161,4.1125,4.1163,4.1173,4.1183,4.1194,4.0936,4.1174,4.1173,4.1172,4.1172,4.1171,0,4.0569,4.0593,4.0663,4.0732,4.0792,4.0755,4.0807,4.0861,4.0945,4.0989,4.1052,4.1151,4.123,4.1255,4.1332,4.1388,4.1377,4.1409,4.1406,4.1413,4.122,4.1191,4.1417,4.1417,4.1417,4.1417,4.1417,4.1417,4.07,4.0814,4.0816,4.0948,4.0972,4.1063,4.1096,4.114,4.1176,4.1287,4.1351,4.1366,4.1404,4.1484,4.1555,4.1561,4.1592,4.1631,4.1632,4.1451,4.1427,4.1403,4.1376,4.1638,4.1638,4.1819,4.1821,4.1822]},{"header":{"parameterUnit":"m.s-1","parameterCategory":1,"la1":30.2991,"la2":30.254,"lo1":-89.0895,"lo2":-89.0444,"dy":0.0017,"dx":0.0017,"nx":28,"ny":28,"refTime":"2024-08-06T21:00:00:Z","depth":0,"parameterNumber":3,"parameterNumberName":"V-component_of_WINDS"},"data":[0,0,0,0,0,0,0,0,0,0,0,0,0,0,0,0,0,0,0,0,0,0,0,0,0,0,0,0,0,0,0,0,0,0,0,0,0,0,0,0,0,0,0,0,0,0,0,0,0,0,0,0,0,0,0,0,0,0,-0.5065,-0.5065,0,-0.509,-0.509,-0.509,-0.5101,-0.5101,-0.5101,-0.5101,-0.5128,-0.5129,-0.5129,0,0,0,0,0,0,0,0,0,0,0,0,0,-0.5029,-0.5029,-0.5065,-0.5065,-0.5066,-0.509,-0.509,-0.509,-0.5101,-0.5101,-0.5101,-0.5101,-0.5128,-0.5128,-0.5129,0,0,0,0,0,0,0,0,0,0,0,0,0,-0.5048,-0.503,-0.5065,-0.5074,-0.5075,-0.509,-0.509,-0.5091,-0.5101,-0.5101,-0.5101,-0.5101,-0.5127,-0.5128,-0.5129,-0.5138,0,0,-0.5133,-0.5133,0,0,0,0,0,0,0,0,-0.5047,-0.505,-0.5072,-0.5073,-0.5075,-0.5092,-0.5087,-0.5106,-0.5101,-0.5091,-0.5101,-0.5101,-0.5116,-0.5118,-0.5123,-0.5139,-0.514,-0.5133,-0.5134,-0.5134,-0.5134,0,0,0,0,0,0,0,-0.5046,-0.5049,-0.5075,-0.5073,-0.5074,-0.5077,-0.508,-0.5091,-0.5104,-0.5092,-0.5093,-0.5096,-0.5117,-0.5122,-0.5124,-0.5141,-0.5133,-0.5134,-0.5135,-0.5135,-0.5165,-0.5165,0,0,0,0,0,0,-0.5043,-0.5047,-0.5074,-0.5076,-0.506,-0.5078,-0.5081,-0.5087,-0.5104,-0.5106,-0.5096,-0.5096,-0.512,-0.5122,-0.5125,-0.5136,-0.5134,-0.5135,-0.5136,-0.5165,-0.5165,-0.5165,0,0,0,0,0,0,-0.5042,-0.5045,-0.5073,-0.5062,-0.5066,-0.5079,-0.5085,-0.5087,-0.5092,-0.5106,-0.5109,-0.5098,-0.512,-0.5123,-0.5134,-0.5137,-0.5136,-0.5137,-0.5165,-0.5165,-0.5165,-0.5157,0,0,0,0,0,0,-0.5041,-0.5045,-0.5047,-0.5062,-0.5066,-0.5082,-0.5085,-0.5088,-0.5094,-0.5095,-0.511,-0.5112,-0.512,-0.5133,-0.5135,-0.5138,-0.5138,-0.5165,-0.5165,-0.5165,-0.5158,-0.5157,-0.5157,0,0,0,0,0,-0.5039,-0.5045,-0.5048,-0.5051,-0.507,-0.5082,-0.5085,-0.5093,-0.5094,-0.5097,-0.5107,-0.5112,-0.5136,-0.5134,-0.5137,-0.514,-0.5165,-0.5165,-0.5165,-0.5158,-0.5157,-0.5157,0,0,0,0,0,0,-0.5031,-0.5047,-0.505,-0.506,-0.5069,-0.5084,-0.5088,-0.5093,-0.5103,-0.5103,-0.5114,-0.5118,-0.5128,-0.5135,-0.5132,-0.5149,-0.5151,-0.5152,-0.5144,-0.5144,-0.5144,-0.5142,-0.5139,0,0,0,0,0,-0.503,-0.5038,-0.5052,-0.5059,-0.5064,-0.5075,-0.5081,-0.5087,-0.5097,-0.5101,-0.5111,-0.5122,-0.5132,-0.5138,-0.5148,-0.5159,-0.5162,-0.5163,-0.5162,-0.5162,-0.5163,-0.5169,-0.517,-0.5166,-0.5166,-0.5166,0,0,-0.5028,-0.5038,-0.5042,-0.5057,-0.5066,-0.5074,-0.5078,-0.5087,-0.5094,-0.5103,-0.5114,-0.5122,-0.5134,-0.5145,-0.5151,-0.5152,-0.5165,-0.5163,-0.5162,-0.5163,-0.517,-0.517,-0.517,-0.5166,-0.5166,-0.5166,0,0,-0.503,-0.5038,-0.5045,-0.5053,-0.5065,-0.5073,-0.5074,-0.5088,-0.5093,-0.5105,-0.5112,-0.512,-0.5137,-0.5146,-0.5153,-0.5158,-0.5163,-0.5161,-0.516,-0.5166,-0.5166,-0.5166,-0.5168,-0.5169,-0.5161,-0.5161,-0.5161,0,-0.5026,-0.5039,-0.5048,-0.5056,-0.5063,-0.5071,-0.5079,-0.5086,-0.5101,-0.5106,-0.5107,-0.5129,-0.5138,-0.5151,-0.5152,-0.5157,-0.516,-0.5159,-0.5165,-0.5166,-0.5166,-0.5168,-0.5169,-0.5161,-0.5161,-0.5161,-0.5161,0,-0.5034,-0.5043,-0.5048,-0.5061,-0.5068,-0.5076,-0.5087,-0.5093,-0.5099,-0.5106,-0.5118,-0.5129,-0.5142,-0.5146,-0.5151,-0.516,-0.516,-0.5163,-0.5165,-0.5166,-0.5168,-0.5169,-0.5161,-0.5161,-0.5161,-0.5161,0,0,-0.5031,-0.505,-0.5051,-0.5057,-0.5072,-0.5079,-0.5087,-0.5099,-0.5105,-0.5115,-0.5123,-0.5137,-0.514,-0.5147,-0.5154,-0.516,-0.5163,-0.5162,-0.5162,-0.5162,-0.5174,-0.5171,-0.5172,-0.5167,-0.5167,-0.5167,-0.5173,0,-0.5034,-0.5049,-0.5058,-0.507,-0.5078,-0.5086,-0.5094,-0.5104,-0.5111,-0.512,-0.5129,-0.5139,-0.5142,-0.5146,-0.5152,-0.5161,-0.5166,-0.5161,-0.5175,-0.5175,-0.5171,-0.5173,-0.5171,-0.5175,-0.5174,-0.5174,-0.5174,0,-0.504,-0.505,-0.5062,-0.5076,-0.508,-0.5086,-0.5098,-0.5106,-0.5117,-0.5123,-0.5131,-0.5138,-0.5148,-0.5149,-0.5163,-0.516,-0.5166,-0.5172,-0.5172,-0.5174,-0.5174,-0.5175,-0.5177,-0.5178,-0.5175,-0.5175,-0.5175,0,-0.5037,-0.5053,-0.5062,-0.5068,-0.5083,-0.5088,-0.5095,-0.5106,-0.5113,-0.5123,-0.5128,-0.514,-0.5146,-0.5155,-0.5165,-0.5165,-0.5179,-0.518,-0.5184,-0.5183,-0.5186,-0.5186,-0.5189,-0.519,-0.519,-0.519,-0.519,0,-0.504,-0.5047,-0.5061,-0.5067,-0.5075,-0.5085,-0.5094,-0.5102,-0.5112,-0.512,-0.5128,-0.5135,-0.5148,-0.5157,-0.5165,-0.5176,-0.5179,-0.5184,-0.5186,-0.5183,-0.5182,-0.5187,-0.5187,-0.519,-0.519,-0.519,-0.519,0,-0.5037,-0.5046,-0.5057,-0.5071,-0.5075,-0.5081,-0.5093,-0.51,-0.5108,-0.5118,-0.5121,-0.5133,-0.5145,-0.5156,-0.5171,-0.5176,-0.5187,-0.519,-0.5183,-0.5184,-0.5187,-0.5186,-0.5193,-0.5195,-0.5195,-0.5195,-0.5195,0,-0.5038,-0.5044,-0.5058,-0.5064,-0.507,-0.508,-0.5086,-0.5097,-0.5103,-0.5117,-0.5122,-0.5134,-0.5144,-0.5162,-0.5173,-0.5185,-0.5188,-0.5189,-0.519,-0.5187,-0.5188,-0.5187,-0.5188,-0.5189,-0.5189,-0.5189,-0.5189,0,-0.5039,-0.5044,-0.5053,-0.5064,-0.5071,-0.508,-0.509,-0.5094,-0.5107,-0.5114,-0.5125,-0.5133,-0.5149,-0.516,-0.5174,-0.5182,-0.5188,-0.5189,-0.519,-0.5187,-0.5183,-0.5186,-0.5182,-0.5189,-0.5189,-0.5189,-0.5189,-0.5189,-0.5039,-0.5044,-0.5055,-0.5065,-0.5073,-0.5082,-0.5089,-0.5097,-0.5107,-0.512,-0.5126,-0.5137,-0.5149,-0.5168,-0.5175,-0.5185,-0.5187,-0.5189,-0.5189,-0.5189,-0.5189,-0.5182,-0.5188,-0.5188,-0.5188,-0.5188,-0.5188,0,-0.504,-0.5048,-0.5057,-0.507,-0.5078,-0.5082,-0.5093,-0.5099,-0.5109,-0.512,-0.5129,-0.5143,-0.5154,-0.5166,-0.5179,-0.5184,-0.5187,-0.5187,-0.5187,-0.5189,-0.5187,-0.5184,-0.5184,-0.5184,-0.5184,-0.5184,-0.5184,-0.5184,-0.5042,-0.5052,-0.5058,-0.5072,-0.5079,-0.509,-0.5096,-0.5104,-0.5113,-0.5127,-0.5136,-0.5144,-0.5155,-0.5169,-0.518,-0.5183,-0.5187,-0.5186,-0.519,-0.5189,-0.5189,-0.5189,-0.5187,-0.5187,-0.5187,-0.5192,-0.5192,-0.5192]}]]